カタログに戻る

STARLINK-30819

運用中通信VLEO
NORAD 58179·PAYLOAD·🇺🇸 United States

打ち上げ Oct 30, 2023 から Cape Canaveral Space Force Station

Loading…

次のパス (今後24時間)

TLE

最新Source: CelesTrak SupGP

元期: Sep 14, 2026, 21:59 UTC

1 58179C 23167E   26257.91645833 -.00029372  00000+0 -10639-2 0  2572
2 58179  43.0026 154.7721 0001452 269.7574 126.8498 15.27592572    10

AllMySatでSTARLINK-30819をリアルタイム追跡

Download on the App Store